| time (UTC) | temp F | wind direction | speed MPH | gust MPH | rain 1hr in | rain 24hr in | rain mn in | humidity % | barometer mb |
| 20260901020518 | 63 | 314 | 8.0 | 10.0 | 0.00 | 0.00 | 0.00 | 56 | 1010.2 |
| 20260901015618 | 64 | 314 | 8.0 | 10.0 | 0.00 | 0.00 | 0.00 | 56 | 1010.2 |
| 20260901014718 | 64 | 314 | 8.0 | 9.0 | 0.00 | 0.00 | 0.00 | 57 | 1010.3 |
| 20260901013818 | 65 | 314 | 8.0 | 9.0 | 0.00 | 0.00 | 0.00 | 56 | 1010.3 |
| 20260901012918 | 65 | 314 | 8.0 | 9.0 | 0.00 | 0.00 | 0.00 | 54 | 1010.4 |
| 20260901011117 | 67 | 314 | 8.0 | 9.0 | 0.00 | 0.00 | 0.00 | 52 | 1010.6 |
| 20260901010217 | 68 | 316 | 8.0 | 9.0 | 0.00 | 0.00 | 0.00 | 49 | 1010.6 |
| 20260901005317 | 69 | 314 | 7.0 | 8.0 | 0.00 | 0.00 | 0.00 | 47 | 1010.8 |
| 20260901004418 | 71 | 314 | 7.0 | 8.0 | 0.00 | 0.00 | 0.00 | 42 | 1010.7 |
| 20260901003518 | 75 | 321 | 6.0 | 8.0 | 0.00 | 0.00 | 0.00 | 34 | 1010.8 |
| 20260901002618 | 79 | 325 | 4.0 | 6.0 | 0.00 | 0.00 | 0.00 | 26 | 1010.8 |
| 20260831235917 | 83 | 173 | 2.0 | 7.0 | 0.00 | 0.00 | 0.00 | 19 | 1011.1 |
| 20260831234118 | 83 | 176 | 3.0 | 9.0 | 0.00 | 0.00 | 0.00 | 14 | 1011.4 |
| 20260831233217 | 83 | 157 | 4.0 | 8.0 | 0.00 | 0.00 | 0.00 | 15 | 1011.5 |
| 20260831232317 | 83 | 181 | 4.0 | 8.0 | 0.00 | 0.00 | 0.00 | 14 | 1011.5 |
| 20260831231417 | 83 | 171 | 1.0 | 11.0 | 0.00 | 0.00 | 0.00 | 15 | 1011.7 |
| 20260831225617 | 84 | 125 | 4.0 | 6.0 | 0.00 | 0.00 | 0.00 | 14 | 1011.8 |
| 20260831224717 | 83 | 172 | 2.0 | 10.0 | 0.00 | 0.00 | 0.00 | 15 | 1011.7 |
| 20260831223817 | 82 | 176 | 4.0 | 8.0 | 0.00 | 0.00 | 0.00 | 15 | 1012.0 |
| 20260831222917 | 82 | 167 | 4.0 | 11.0 | 0.00 | 0.00 | 0.00 | 15 | 1012.1 |
| 20260831222017 | 82 | 150 | 6.0 | 11.0 | 0.00 | 0.00 | 0.00 | 17 | 1012.1 |
| 20260831221117 | 82 | 172 | 5.0 | 8.0 | 0.00 | 0.00 | 0.00 | 17 | 1012.2 |
| 20260831220217 | 82 | 172 | 4.0 | 9.0 | 0.00 | 0.00 | 0.00 | 17 | 1012.3 |
| 20260831215317 | 81 | 192 | 2.0 | 10.0 | 0.00 | 0.00 | 0.00 | 19 | 1012.5 |
| 20260831214417 | 81 | 191 | 3.0 | 10.0 | 0.00 | 0.00 | 0.00 | 20 | 1012.7 |
| 20260831213517 | 80 | 159 | 3.0 | 11.0 | 0.00 | 0.00 | 0.00 | 20 | 1012.8 |
| 20260831212617 | 81 | 176 | 5.0 | 11.0 | 0.00 | 0.00 | 0.00 | 20 | 1013.0 |
| 20260831211717 | 81 | 171 | 1.0 | 11.0 | 0.00 | 0.00 | 0.00 | 21 | 1013.2 |
| 20260831210817 | 80 | 176 | 3.0 | 12.0 | 0.00 | 0.00 | 0.00 | 22 | 1013.2 |
| 20260831205917 | 81 | 144 | 3.0 | 8.0 | 0.00 | 0.00 | 0.00 | 24 | 1013.2 |
| 20260831205017 | 80 | 147 | 5.0 | 8.0 | 0.00 | 0.00 | 0.00 | 24 | 1013.5 |
| 20260831204117 | 80 | 128 | 4.0 | 8.0 | 0.00 | 0.00 | 0.00 | 24 | 1013.7 |
| 20260831203217 | 80 | 114 | 4.0 | 7.0 | 0.00 | 0.00 | 0.00 | 24 | 1013.9 |
| 20260831202317 | 79 | 133 | 4.0 | 8.0 | 0.00 | 0.00 | 0.00 | 26 | 1014.1 |
| 20260831201417 | 78 | 164 | 4.0 | 9.0 | 0.00 | 0.00 | 0.00 | 26 | 1014.0 |
| 20260831200517 | 78 | 150 | 3.0 | 10.0 | 0.00 | 0.00 | 0.00 | 27 | 1014.2 |
| 20260831195617 | 77 | 163 | 7.0 | 12.0 | 0.00 | 0.00 | 0.00 | 28 | 1014.3 |
| 20260831194717 | 76 | 176 | 6.0 | 10.0 | 0.00 | 0.00 | 0.00 | 30 | 1014.5 |
| 20260831193817 | 76 | 177 | 7.0 | 11.0 | 0.00 | 0.00 | 0.00 | 29 | 1014.7 |
| 20260831192917 | 76 | 156 | 7.0 | 9.0 | 0.00 | 0.00 | 0.00 | 29 | 1014.8 |
| 20260831192017 | 76 | 146 | 4.0 | 8.0 | 0.00 | 0.00 | 0.00 | 30 | 1014.9 |
| 20260831191117 | 75 | 169 | 4.0 | 8.0 | 0.00 | 0.00 | 0.00 | 32 | 1015.1 |
| 20260831190217 | 74 | 156 | 4.0 | 8.0 | 0.00 | 0.00 | 0.00 | 32 | 1015.1 |
| 20260831185317 | 74 | 130 | 3.0 | 7.0 | 0.00 | 0.00 | 0.00 | 35 | 1015.4 |
| 20260831184417 | 73 | 129 | 3.0 | 8.0 | 0.00 | 0.00 | 0.00 | 35 | 1015.5 |
| 20260831183517 | 72 | 136 | 2.0 | 8.0 | 0.00 | 0.00 | 0.00 | 39 | 1015.7 |
| 20260831182617 | 72 | 123 | 4.0 | 8.0 | 0.00 | 0.00 | 0.00 | 39 | 1015.9 |
| 20260831180817 | 70 | 117 | 4.0 | 10.0 | 0.00 | 0.00 | 0.00 | 44 | 1016.0 |
| 20260831175016 | 71 | 84 | 2.0 | 8.0 | 0.00 | 0.00 | 0.00 | 46 | 1016.3 |
| 20260831173217 | 67 | 128 | 1.0 | 8.0 | 0.00 | 0.00 | 0.00 | 53 | 1016.5 |
| 20260831172317 | 67 | 133 | 4.0 | 10.0 | 0.00 | 0.00 | 0.00 | 53 | 1016.7 |
| 20260831171416 | 67 | 71 | 2.0 | 9.0 | 0.00 | 0.00 | 0.00 | 54 | 1016.7 |
| 20260831170516 | 67 | 59 | 2.0 | 10.0 | 0.00 | 0.00 | 0.00 | 56 | 1016.7 |
| 20260831165617 | 66 | 85 | 3.0 | 9.0 | 0.00 | 0.00 | 0.00 | 57 | 1016.9 |
| 20260831164717 | 65 | 87 | 4.0 | 10.0 | 0.00 | 0.00 | 0.00 | 58 | 1017.0 |
| 20260831163818 | 65 | 86 | 5.0 | 10.0 | 0.00 | 0.00 | 0.00 | 59 | 1017.2 |
| 20260831162916 | 64 | 85 | 2.0 | 10.0 | 0.00 | 0.00 | 0.00 | 62 | 1017.1 |
| 20260831162016 | 63 | 111 | 4.0 | 10.0 | 0.00 | 0.00 | 0.00 | 62 | 1017.3 |
| 20260831161117 | 63 | 116 | 4.0 | 10.0 | 0.00 | 0.00 | 0.00 | 63 | 1017.3 |
| 20260831160216 | 62 | 104 | 2.0 | 6.0 | 0.00 | 0.00 | 0.00 | 62 | 1017.4 |
| 20260831155316 | 62 | 73 | 1.0 | 7.0 | 0.00 | 0.00 | 0.00 | 63 | 1017.6 |
| 20260831154417 | 61 | 75 | 1.0 | 5.0 | 0.00 | 0.00 | 0.00 | 66 | 1017.7 |
| 20260831153516 | 60 | 75 | 3.0 | 7.0 | 0.00 | 0.00 | 0.00 | 68 | 1017.7 |
| 20260831151716 | 58 | 88 | 2.0 | 7.0 | 0.00 | 0.00 | 0.00 | 70 | 1017.6 |
| 20260831150816 | 57 | 92 | 2.0 | 6.0 | 0.00 | 0.00 | 0.00 | 71 | 1017.5 |
| 20260831145916 | 56 | 83 | 1.0 | 4.0 | 0.00 | 0.00 | 0.00 | 73 | 1017.6 |
| 20260831145016 | 56 | 91 | 2.0 | 5.0 | 0.00 | 0.00 | 0.00 | 76 | 1017.5 |
| 20260831144116 | 54 | 89 | 1.0 | 8.0 | 0.00 | 0.00 | 0.00 | 79 | 1017.5 |
| 20260831143216 | 53 | 87 | 4.0 | 8.0 | 0.00 | 0.00 | 0.00 | 81 | 1017.5 |
| 20260831142316 | 52 | 81 | 1.0 | 4.0 | 0.00 | 0.00 | 0.00 | 87 | 1017.3 |
| 20260831141416 | 50 | 78 | 1.0 | 4.0 | 0.00 | 0.00 | 0.00 | 90 | 1017.3 |
| 20260831140516 | 49 | 47 | 1.0 | 4.0 | 0.00 | 0.00 | 0.00 | 90 | 1017.2 |
| 20260831135616 | 48 | 40 | 1.0 | 4.0 | 0.00 | 0.00 | 0.00 | 90 | 1017.4 |
| 20260831134716 | 48 | 44 | 1.0 | 3.0 | 0.00 | 0.00 | 0.00 | 89 | 1017.3 |
| 20260831132916 | 48 | 29 | 2.0 | 4.0 | 0.00 | 0.00 | 0.00 | 89 | 1017.2 |
| 20260831132016 | 48 | 8 | 2.0 | 4.0 | 0.00 | 0.00 | 0.00 | 90 | 1017.2 |
| 20260831131116 | 48 | 11 | 2.0 | 4.0 | 0.00 | 0.00 | 0.00 | 90 | 1017.3 |
| 20260831130216 | 47 | 351 | 3.0 | 6.0 | 0.00 | 0.00 | 0.00 | 90 | 1017.2 |
| 20260831124416 | 47 | 333 | 4.0 | 6.0 | 0.00 | 0.00 | 0.00 | 89 | 1017.2 |
| 20260831123516 | 47 | 334 | 2.0 | 6.0 | 0.00 | 0.00 | 0.00 | 89 | 1017.2 |
| 20260831122616 | 47 | 327 | 3.0 | 4.0 | 0.00 | 0.00 | 0.00 | 89 | 1017.1 |
| 20260831121716 | 47 | 321 | 4.0 | 6.0 | 0.00 | 0.00 | 0.00 | 89 | 1017.1 |
| 20260831120816 | 47 | 326 | 4.0 | 6.0 | 0.00 | 0.00 | 0.00 | 89 | 1017.1 |
| 20260831114116 | 47 | 318 | 4.0 | 6.0 | 0.00 | 0.00 | 0.00 | 88 | 1017.0 |
| 20260831113216 | 47 | 314 | 4.0 | 6.0 | 0.00 | 0.00 | 0.00 | 87 | 1017.0 |
| 20260831112316 | 48 | 316 | 4.0 | 5.0 | 0.00 | 0.00 | 0.00 | 86 | 1017.0 |
| 20260831111416 | 48 | 324 | 4.0 | 6.0 | 0.00 | 0.00 | 0.00 | 86 | 1016.8 |
| 20260831105616 | 48 | 314 | 4.0 | 6.0 | 0.00 | 0.00 | 0.00 | 85 | 1016.7 |
| 20260831104716 | 48 | 319 | 4.0 | 6.0 | 0.00 | 0.00 | 0.00 | 84 | 1016.7 |
| 20260831102916 | 49 | 317 | 4.0 | 7.0 | 0.00 | 0.00 | 0.00 | 83 | 1016.7 |
| 20260831102016 | 49 | 324 | 5.0 | 7.0 | 0.00 | 0.00 | 0.00 | 83 | 1016.7 |
| 20260831100216 | 50 | 331 | 4.0 | 7.0 | 0.00 | 0.00 | 0.00 | 81 | 1016.6 |
| 20260831095315 | 50 | 343 | 4.0 | 8.0 | 0.00 | 0.00 | 0.00 | 81 | 1016.4 |
| 20260831094415 | 50 | 344 | 6.0 | 8.0 | 0.00 | 0.00 | 0.00 | 79 | 1016.4 |
| 20260831093515 | 51 | 356 | 6.0 | 8.0 | 0.00 | 0.00 | 0.00 | 78 | 1016.5 |
| 20260831092616 | 51 | 1 | 4.0 | 8.0 | 0.00 | 0.00 | 0.00 | 79 | 1016.6 |
| 20260831091715 | 52 | 355 | 4.0 | 8.0 | 0.00 | 0.00 | 0.00 | 77 | 1016.5 |
| 20260831090816 | 52 | 350 | 4.0 | 7.0 | 0.00 | 0.00 | 0.00 | 78 | 1016.4 |
| 20260831082316 | 51 | 318 | 6.0 | 9.0 | 0.00 | 0.00 | 0.00 | 77 | 1016.5 |
| 20260831081424 | 52 | 343 | 7.0 | 8.0 | 0.00 | 0.00 | 0.00 | 75 | 1016.3 |
| 20260831080516 | 52 | 326 | 4.0 | 8.0 | 0.00 | 0.00 | 0.00 | 75 | 1016.4 |
| 20260831075615 | 52 | 330 | 7.0 | 8.0 | 0.00 | 0.00 | 0.00 | 74 | 1016.4 |
| 20260831074716 | 53 | 332 | 6.0 | 8.0 | 0.00 | 0.00 | 0.00 | 72 | 1016.5 |
| 20260831073816 | 54 | 355 | 5.0 | 8.0 | 0.00 | 0.00 | 0.00 | 70 | 1016.4 |
| 20260831072915 | 55 | 5 | 4.0 | 6.0 | 0.00 | 0.00 | 0.00 | 69 | 1016.5 |
| 20260831072015 | 56 | 358 | 4.0 | 6.0 | 0.00 | 0.00 | 0.00 | 68 | 1016.6 |
| 20260831071115 | 57 | 354 | 3.0 | 9.0 | 0.00 | 0.00 | 0.00 | 67 | 1016.5 |
| 20260831070215 | 57 | 350 | 4.0 | 8.0 | 0.00 | 0.00 | 0.00 | 71 | 1016.5 |
| 20260831064415 | 57 | 336 | 5.0 | 7.0 | 0.00 | 0.00 | 0.00 | 70 | 1016.6 |
| 20260831063515 | 57 | 318 | 4.0 | 7.0 | 0.00 | 0.00 | 0.00 | 68 | 1016.5 |
| 20260831062615 | 58 | 331 | 4.0 | 6.0 | 0.00 | 0.00 | 0.00 | 67 | 1016.4 |
| 20260831061715 | 59 | 330 | 4.0 | 6.0 | 0.00 | 0.00 | 0.00 | 66 | 1016.4 |
| 20260831060815 | 59 | 336 | 4.0 | 6.0 | 0.00 | 0.00 | 0.00 | 64 | 1016.4 |
| 20260831055915 | 60 | 347 | 4.0 | 6.0 | 0.00 | 0.00 | 0.00 | 61 | 1016.4 |
| 20260831053215 | 61 | 12 | 2.0 | 7.0 | 0.00 | 0.00 | 0.00 | 59 | 1016.2 |
| 20260831052315 | 62 | 7 | 3.0 | 7.0 | 0.00 | 0.00 | 0.00 | 59 | 1016.2 |
| 20260831050515 | 62 | 5 | 3.0 | 5.0 | 0.00 | 0.00 | 0.00 | 58 | 1016.1 |
| 20260831045615 | 62 | 3 | 2.0 | 5.0 | 0.00 | 0.00 | 0.00 | 58 | 1016.1 |
| 20260831044715 | 62 | 357 | 2.0 | 5.0 | 0.00 | 0.00 | 0.00 | 58 | 1016.2 |
| 20260831043815 | 62 | 348 | 3.0 | 5.0 | 0.00 | 0.00 | 0.00 | 58 | 1015.9 |
| 20260831042915 | 62 | 338 | 4.0 | 5.0 | 0.00 | 0.00 | 0.00 | 58 | 1016.0 |
| 20260831042015 | 62 | 344 | 3.0 | 6.0 | 0.00 | 0.00 | 0.00 | 57 | 1016.1 |
| 20260831041115 | 62 | 345 | 3.0 | 6.0 | 0.00 | 0.00 | 0.00 | 56 | 1015.9 |
| 20260831035315 | 63 | 358 | 4.0 | 5.0 | 0.00 | 0.00 | 0.00 | 56 | 1016.1 |
| 20260831034415 | 63 | 342 | 3.0 | 5.0 | 0.00 | 0.00 | 0.00 | 56 | 1015.8 |
| 20260831033515 | 63 | 350 | 3.0 | 4.0 | 0.00 | 0.00 | 0.00 | 55 | 1015.9 |
| 20260831032615 | 64 | 359 | 2.0 | 5.0 | 0.00 | 0.00 | 0.00 | 53 | 1015.7 |
| 20260831030815 | 65 | 2 | 2.0 | 4.0 | 0.00 | 0.00 | 0.00 | 49 | 1015.6 |
| 20260831025915 | 65 | 359 | 3.0 | 4.0 | 0.00 | 0.00 | 0.00 | 48 | 1015.5 |
| 20260831025015 | 65 | 16 | 2.0 | 4.0 | 0.00 | 0.00 | 0.00 | 46 | 1015.4 |
| 20260831024115 | 66 | 25 | 0.0 | 4.0 | 0.00 | 0.00 | 0.00 | 45 | 1015.4 |
| 20260831023215 | 67 | 1 | 2.0 | 6.0 | 0.00 | 0.00 | 0.00 | 44 | 1015.3 |
| 20260831022315 | 67 | 12 | 2.0 | 6.0 | 0.00 | 0.00 | 0.00 | 42 | 1015.2 |
| 20260831021415 | 68 | 17 | 4.0 | 7.0 | 0.00 | 0.00 | 0.00 | 41 | 1015.2 |